When you browse on this site, cookies collect data to enhance your experience and personalize the content and advertising you see.
Visit our Privacy Policy to learn more. By continuing to use the site, you agree to this use of cookies and data.
  • In Germany
  • List of Countries
  • For 7 days
  • Water Temperature
  • Satellite Maps
  • Weather Map
  • Weather Widgets
  • user-avatar
    Login

    Hourly Weather Mykhalkove

    Today, 19 November, Monday

    Time Temperature Precipitation Wind Pressure Humidity
    00:00 -1°C° 0 mm 1 mps 753 mmHg 68%
    01:00 -1°C° 0 mm 1 mps 753 mmHg 68%
    02:00 -3°C° 0 mm 2 mps 753 mmHg 68%
    03:00 -3°C° 0 mm 2 mps 753 mmHg 69%
    04:00 -3°C° 0 mm 2 mps 753 mmHg 69%
    05:00 -4°C° 0 mm 3 mps 752 mmHg 70%
    06:00 -2°C° 0 mm 3 mps 752 mmHg 72%
    07:00 -2°C° 0 mm 3 mps 752 mmHg 74%
    08:00 -3°C° 0 mm 4 mps 752 mmHg 76%
    09:00 -2°C° 0.1 mm 4 mps 752 mmHg 74%
    10:00 -1°C° 0.1 mm 5 mps 752 mmHg 71%
    11:00 -2°C° 0.1 mm 6 mps 752 mmHg 68%
    12:00 -1°C° 0.1 mm 6 mps 752 mmHg 64%
    13:00 -1°C° 0.1 mm 6 mps 751 mmHg 59%
    14:00 -1°C° 0.1 mm 6 mps 751 mmHg 55%
    15:00 -1°C° 0.3 mm 6 mps 750 mmHg 58%
    16:00 -2°C° 0.3 mm 6 mps 750 mmHg 61%
    17:00 -2°C° 0.3 mm 6 mps 750 mmHg 63%
    18:00 -3°C° 1.3 mm 6 mps 750 mmHg 73%
    19:00 -3°C° 1.3 mm 6 mps 750 mmHg 82%
    20:00 -4°C° 1.3 mm 7 mps 750 mmHg 91%
    21:00 -4°C° 0.7 mm 7 mps 750 mmHg 91%
    22:00 -4°C° 0.7 mm 7 mps 750 mmHg 92%
    23:00 -4°C° 0.7 mm 7 mps 750 mmHg 92%

    Tomorrow, 20 November, Tuesday

    Time Temperature Precipitation Wind Pressure Humidity
    00:00 -4°C° 0.4 mm 7 mps 750 mmHg 92%
    01:00 -4°C° 0.4 mm 7 mps 750 mmHg 92%
    02:00 -4°C° 0.4 mm 7 mps 750 mmHg 91%
    03:00 -4°C° 0.1 mm 7 mps 750 mmHg 91%
    04:00 -4°C° 0.1 mm 6 mps 751 mmHg 91%
    05:00 -4°C° 0.1 mm 6 mps 751 mmHg 91%
    06:00 -4°C° 0 mm 6 mps 751 mmHg 91%
    07:00 -4°C° 0 mm 6 mps 752 mmHg 91%
    08:00 -4°C° 0 mm 6 mps 752 mmHg 91%
    09:00 -4°C° 0 mm 5 mps 752 mmHg 91%
    10:00 -2°C° 0 mm 5 mps 753 mmHg 91%
    11:00 -2°C° 0 mm 5 mps 753 mmHg 91%
    12:00 -2°C° 0 mm 4 mps 753 mmHg 89%
    13:00 -2°C° 0 mm 4 mps 753 mmHg 88%
    14:00 -1°C° 0 mm 4 mps 753 mmHg 86%
    15:00 -2°C° 0 mm 4 mps 753 mmHg 86%
    16:00 -2°C° 0 mm 3 mps 753 mmHg 86%
    17:00 -4°C° 0 mm 3 mps 753 mmHg 86%
    18:00 -4°C° 0 mm 3 mps 753 mmHg 86%
    19:00 -5°C° 0 mm 3 mps 754 mmHg 86%
    20:00 -5°C° 0 mm 3 mps 754 mmHg 85%
    21:00 -5°C° 0 mm 3 mps 754 mmHg 85%
    22:00 -5°C° 0 mm 3 mps 754 mmHg 85%
    23:00 -6°C° 0 mm 3 mps 754 mmHg 85%

    Day after tomorrow, 21 November, Wednesday

    Time Temperature Precipitation Wind Pressure Humidity
    00:00 -6°C° 0 mm 3 mps 754 mmHg 85%
    01:00 -6°C° 0 mm 3 mps 754 mmHg 85%
    02:00 -6°C° 0 mm 3 mps 754 mmHg 86%
    03:00 -6°C° 0 mm 3 mps 753 mmHg 87%
    04:00 -6°C° 0 mm 3 mps 753 mmHg 88%
    05:00 -7°C° 0 mm 3 mps 753 mmHg 89%
    06:00 -7°C° 0 mm 3 mps 753 mmHg 89%
    07:00 -7°C° 0 mm 4 mps 753 mmHg 90%
    08:00 -7°C° 0 mm 4 mps 753 mmHg 90%
    09:00 -5°C° 0 mm 4 mps 753 mmHg 89%
    10:00 -4°C° 0 mm 4 mps 754 mmHg 87%
    11:00 -3°C° 0 mm 4 mps 754 mmHg 86%
    12:00 -3°C° 0 mm 4 mps 754 mmHg 86%
    13:00 -2°C° 0 mm 4 mps 753 mmHg 85%
    14:00 -2°C° 0 mm 4 mps 753 mmHg 85%
    15:00 -3°C° 0 mm 4 mps 753 mmHg 87%
    16:00 -4°C° 0 mm 4 mps 753 mmHg 89%
    17:00 -4°C° 0 mm 4 mps 753 mmHg 91%
    18:00 -5°C° 0 mm 4 mps 753 mmHg 91%
    19:00 -5°C° 0 mm 4 mps 754 mmHg 92%
    20:00 -5°C° 0 mm 4 mps 754 mmHg 92%
    21:00 -6°C° 0 mm 3 mps 754 mmHg 92%
    22:00 -6°C° 0 mm 3 mps 754 mmHg 92%
    23:00 -6°C° 0 mm 3 mps 755 mmHg 92%

    22 November, Thursday

    Time Temperature Precipitation Wind Pressure Humidity
    00:00 -6°C° 0 mm 3 mps 755 mmHg 92%
    01:00 -7°C° 0 mm 3 mps 755 mmHg 92%
    02:00 -7°C° 0 mm 3 mps 755 mmHg 92%
    03:00 -7°C° 0 mm 3 mps 755 mmHg 92%
    04:00 -7°C° 0 mm 3 mps 755 mmHg 92%
    05:00 -7°C° 0 mm 3 mps 755 mmHg 92%
    06:00 -7°C° 0 mm 3 mps 755 mmHg 92%
    07:00 -7°C° 0 mm 3 mps 755 mmHg 92%
    08:00 -7°C° 0 mm 3 mps 756 mmHg 92%
    09:00 -6°C° 0 mm 3 mps 756 mmHg 90%
    10:00 -5°C° 0 mm 3 mps 756 mmHg 87%
    11:00 -4°C° 0 mm 3 mps 756 mmHg 85%
    12:00 -2°C° 0 mm 3 mps 756 mmHg 85%
    13:00 -2°C° 0 mm 3 mps 756 mmHg 85%
    14:00 -3°C° 0 mm 4 mps 756 mmHg 84%
    15:00 -2°C° 0 mm 3 mps 756 mmHg 86%
    16:00 -4°C° 0 mm 3 mps 756 mmHg 88%
    17:00 -5°C° 0 mm 3 mps 756 mmHg 89%
    18:00 -5°C° 0 mm 3 mps 756 mmHg 89%
    19:00 -5°C° 0 mm 3 mps 757 mmHg 88%
    20:00 -5°C° 0 mm 3 mps 757 mmHg 88%
    21:00 -6°C° 0 mm 3 mps 757 mmHg 89%
    22:00 -5°C° 0 mm 2 mps 757 mmHg 89%
    23:00 -6°C° 0 mm 2 mps 758 mmHg 90%

    23 November, Friday

    Time Temperature Precipitation Wind Pressure Humidity
    00:00 -6°C° 0 mm 2 mps 758 mmHg 90%
    01:00 -6°C° 0 mm 2 mps 758 mmHg 90%
    02:00 -7°C° 0 mm 3 mps 758 mmHg 90%
    03:00 -7°C° 0 mm 3 mps 758 mmHg 90%
    04:00 -7°C° 0 mm 3 mps 758 mmHg 89%
    05:00 -7°C° 0 mm 3 mps 758 mmHg 89%
    06:00 -7°C° 0 mm 3 mps 758 mmHg 89%
    07:00 -7°C° 0 mm 3 mps 759 mmHg 89%
    08:00 -7°C° 0 mm 3 mps 759 mmHg 89%
    09:00 -6°C° 0 mm 3 mps 759 mmHg 87%
    10:00 -5°C° 0 mm 3 mps 760 mmHg 84%
    11:00 -4°C° 0 mm 3 mps 760 mmHg 82%
    12:00 -2°C° 0 mm 3 mps 760 mmHg 82%
    13:00 -2°C° 0 mm 2 mps 760 mmHg 82%
    14:00 -2°C° 0 mm 2 mps 760 mmHg 81%
    15:00 -3°C° 0 mm 2 mps 760 mmHg 84%
    16:00 -4°C° 0 mm 2 mps 760 mmHg 87%
    17:00 -5°C° 0 mm 2 mps 760 mmHg 89%
    18:00 -5°C° 0 mm 2 mps 760 mmHg 90%
    19:00 -5°C° 0 mm 2 mps 760 mmHg 91%
    20:00 -5°C° 0 mm 2 mps 760 mmHg 92%
    21:00 -4°C° 0 mm 1 mps 760 mmHg 93%
    22:00 -4°C° 0 mm 1 mps 760 mmHg 93%
    23:00 -4°C° 0 mm 1 mps 760 mmHg 94%

    24 November, Saturday

    Time Temperature Precipitation Wind Pressure Humidity
    00:00 -4°C° 0 mm 1 mps 760 mmHg 94%
    01:00 -4°C° 0 mm 1 mps 760 mmHg 94%
    02:00 -4°C° 0 mm 1 mps 760 mmHg 94%
    03:00 -6°C° 0 mm 1 mps 759 mmHg 94%
    04:00 -6°C° 0 mm 1 mps 759 mmHg 94%
    05:00 -6°C° 0 mm 1 mps 759 mmHg 94%
    06:00 -6°C° 0 mm 1 mps 759 mmHg 94%
    07:00 -6°C° 0 mm 1 mps 759 mmHg 94%
    08:00 -6°C° 0 mm 1 mps 758 mmHg 94%
    09:00 -4°C° 0 mm 1 mps 758 mmHg 90%
    10:00 -3°C° 0 mm 1 mps 758 mmHg 86%
    11:00 -2°C° 0 mm 1 mps 758 mmHg 83%
    12:00 -1°C° 0 mm 1 mps 758 mmHg 82%
    13:00 -1°C° 0 mm 1 mps 757 mmHg 81%
    14:00 0°C° 0 mm 1 mps 757 mmHg 80%
    15:00 -1°C° 0 mm 1 mps 756 mmHg 83%
    16:00 -4°C° 0 mm 2 mps 756 mmHg 86%
    17:00 -5°C° 0 mm 2 mps 756 mmHg 89%
    18:00 -6°C° 0 mm 2 mps 756 mmHg 89%
    19:00 -4°C° 0 mm 1 mps 756 mmHg 88%
    20:00 -4°C° 0 mm 1 mps 755 mmHg 87%
    21:00 -6°C° 0 mm 2 mps 755 mmHg 87%
    22:00 -6°C° 0 mm 2 mps 755 mmHg 86%
    23:00 -6°C° 0 mm 2 mps 755 mmHg 85%
    Show more